Regional Weather Roundup
Issued by NWS Upton, NY

Current Version | Previous Version | Text Only | Print | Product List | Glossary On
Versions: 1 2 3 4 5 6 7 8 9 10 11 12 13 14 15 16 17 18 19 20 21 22 23 24 25 26 27 28 29 30 31 32 33
000
ASUS41 KOKX 220305
RWROKX

Regional Weather Roundup
National Weather Service New York NY
1000 PM EST WED FEB 21 2018

Note: "FAIR" indicates few or no clouds below 12,000 feet with no
significant weather and/or obstructions to visibility.

NYZ071-072-176-178-NJZ106-104-220400-
New York City Metro Area

CITY           SKY/WX    TMP DP  RH WIND       PRES   REMARKS
Central Park   CLOUDY    60  52  74 N7        30.39R
Bronx Bot Gard   N/A     57  52  82 NW2       30.38R
Bronx Lehman C   N/A     61  52  72 NW3         N/A
LaGuardia Arpt CLOUDY    57  51  80 NW10      30.36R
Queens College   N/A     61  55  82 N7          N/A
Kennedy Intl   LGT RAIN  62  57  83 N14       30.37R
Breezy Point     N/A     59 N/A N/A N10G16      N/A
Brooklyn Coll    N/A     63  55  77 NW8         N/A
Staten Island    N/A     59  55  88 N9          N/A
Newark/Liberty CLOUDY    61  52  72 N12G21    30.37R
Teterboro      CLOUDY    61  49  64 N12       30.36R
$$

NYZ177-179-078>081-220400-
Long Island New York

CITY           SKY/WX    TMP DP  RH WIND       PRES   REMARKS
Jones Beach      N/A     61 N/A N/A N14G20      N/A
Wantagh          N/A     63  55  77 NW8         N/A
Hempstead        N/A     61  55  82 N8        30.39R
Matinecock Pt    N/A     55 N/A N/A E8          N/A
Farmingdale    CLOUDY    60  54  80 N13       30.36R
MacArthur/ISP  CLOUDY    59  54  83 N10       30.36R
Shirley        MOCLDY    59  53  80 N12       30.36R
Mt Sinai Harb    N/A     50 N/A N/A NW2         N/A
Westhampton    CLOUDY    59  51  75 N12G21    30.36R
East Hampton   CLOUDY    58  52  82 N6        30.34R
Southold         N/A     54  48  82 N7          N/A
Montauk          N/A     58  53  84 W7        30.34R
$$

NYZ052-065-067-220400-
Hudson Valley

CITY           SKY/WX    TMP DP  RH WIND       PRES   REMARKS
White Plains   LGT RAIN  59  48  67 N13       30.36R
Larchmont Harb   N/A     57 N/A N/A N3          N/A
Croton On Huds   N/A     59 N/A N/A N7          N/A
Somers           N/A     55  45  67 N3          N/A
Brewster         N/A     54  39  58 N7          N/A
Newburgh       MOCLDY    57  48  72 VRB5      30.40S
Montgomery     CLOUDY    55  41  59 NW7       30.39R
Otisville        N/A     52  37  58 N3          N/A
Warwick          N/A     54  43  66 W6          N/A
Suffern          N/A     57  45  62 NW9         N/A
Poughkeepsie   CLOUDY    55  39  54 N9        30.40R
Albany         MOCLDY    41  33  73 NW9       30.47R
$$

NJZ001-105-106-008-010-013-015-019>022-104-220400-
New Jersey

CITY           SKY/WX    TMP DP  RH WIND       PRES   REMARKS
Newark/Liberty CLOUDY    61  52  72 N12G21    30.37R
Teterboro      CLOUDY    61  49  64 N12       30.36R
Caldwell       CLOUDY    58  48  69 VRB3      30.39R
Somerville     CLOUDY    56  50  80 N8G17     30.36R
Linden         LGT RAIN  59  53  80 N8        30.37R
Perth Amboy      N/A     57 N/A N/A NW8         N/A
Sussex         CLOUDY    54  44  69 N6        30.43R
Andover          N/A     52  43  71 N8G22     30.41R
Trenton        CLOUDY    61  53  75 N9        30.36R
Millville      FAIR      64  58  80 SW5       30.33S
Atlantic City  FAIR      58  55  90 VRB5      30.34R
Wrightstown    CLOUDY    65  59  80 N12G18    30.33R
Toms River     FAIR      67  61  81 W7        30.35R
Belmar         CLOUDY    64  54  69 N15       30.36R
$$

PAZ047>061-062-071-220400-
Eastern Pennsylvania

CITY           SKY/WX    TMP DP  RH WIND       PRES   REMARKS
Philadelphia   CLOUDY    67  61  81 N16       30.36R
Allentown      CLOUDY    56  46  69 N7        30.41R
Scranton       MOCLDY    43  38  82 N9        30.47S
$$

CTZ002-004>006-009-010-012-RIZ004-006-007-MAZ004-011-015-220400-
Southern New England

 In CT

CITY           SKY/WX    TMP DP  RH WIND       PRES   REMARKS
Bradley Intl   CLOUDY    56  44  64 N15G21    30.37R
Hartford       CLOUDY    59  44  57 NW8       30.37R
Danbury        LGT RAIN  55  43  63 N9        30.39R
Wtrbury/Oxford CLOUDY    55  43  63 N12       30.37R
Norwalk Harbor   N/A     57 N/A N/A N13         N/A
Bridgeport     LGT RAIN  60  46  59 NW10      30.37R
Meriden        CLOUDY    58  43  57 NW10      30.36R
New Haven      CLOUDY    60  45  57 N8        30.35R
Chester        MOCLDY    59  46  63 N12G17    30.34R
Groton         CLOUDY    61  49  64 N10       30.32R
Willimantic    CLOUDY    61  48  62 NW6       30.35R

 In RI

CITY           SKY/WX    TMP DP  RH WIND       PRES   REMARKS
Providence     MOCLDY    60  55  83 W7        30.32R
Block Island   FAIR      51  51 100 W10       30.33R
Westerly       MOCLDY    56  54  93 W3        30.33R

In MA

CITY           SKY/WX    TMP DP  RH WIND       PRES   REMARKS
Boston         CLOUDY    60  49  66 N15       30.32R
Worcester      CLOUDY    56  46  69 NW9G24    30.34R
Westfield      CLOUDY    54  44  69 NW17      30.36R
Provincetown   FAIR      48  47  96 N7        30.32R
Nantucket      FOG       45  45 100 W15       30.31R VSB 1/2
$$

ANZ330-335-338-340-345-350-353-355-220400-
Coastal Marine Observations


STATION/POSITION TIME  SKY/WX   TEMP    WIND        PRES    VSBY  WAVE
                                AIR SEA DIR/SP/G                  HT/PER
                 (UTC)          (F)     (DEG/KT/KT) (MB)    (MI)  (FT/S)
NY Harb Entrance 0250            48 42  270/  4/  6 1027.7          4/ 6
20 S Fire Island 0150            48 43  220/ 10/ 12 1026.4          4/ 6
15 E Barnegat Li 0230               42                N/A           4/13
Hudson Canyon    0250            50 47  210/ 14/ 14 1027.3          4/14
Kings Point      0230            58 40   40/  5/  6 1029.0
Execution Rocks  NOT AVBL
Western LI Sound NOT AVBL
Central LI Sound 0215            51     340/ 12/ 14   N/A           1
Robbins Reef     0230            61     320/  7/  9 1028.7
$$


>>>>>>>>>>>>>>>>>>>>>>>>>>>> KEY <<<<<<<<<<<<<<<<<<<<<<<<<<<
>                                                          <
>     SKY/WX - Sky Condition/Present Weather               <
>     TMP    - Temperature in Fahrenheit                   <
>     DP     - Dew Point in Fahrenheit                     <
>     RH     - Relative Humidity in Percent                <
>     WIND   - Direction (from) and Speed in MPH           <
>     PRES   - Mean Sea Level Pressure (inches of Hg)      <
>     WCI    - Wind Chill Index                            <
>     VSB    - Visibility in Miles                         <
>     HX     - Heat Index                                  <
>     TC     - Temperature in Celsius                      <
>     VRB    - Varibale Wind Direction                     <
>                                                          <
>>>>>>>>>>>>>>>>>>>>>>>>>>>> KEY <<<<<<<<<<<<<<<<<<<<<<<<<<<




USA.gov is the U.S. government's official web portal to all federal, state and local government web resources and services.